Winter Haven, FL

5:15 AM EST on December 15, 2017 (GMT -0500)
Winter Haven's-Gilbert

Weather History for KGIF - October, 2017

Change the Weather History Date:

Thursday, October 12, 2017

  Actual Average Record
Temperature  
Mean Temperature 78 °F -  
Max Temperature 87 °F 85 °F 94 °F (1961)
Min Temperature 71 °F 66 °F 57 °F (1953)
Cooling Degree Days 14    
Growing Degree Days 28 (Base 50)    
Moisture  
Dew Point 68 °F    
Average Humidity 73    
Maximum Humidity 91    
Minimum Humidity 48    
Precipitation  
Precipitation 0.00 in - - ()
Sea Level Pressure  
Sea Level Pressure 29.98 in    
Wind  
Wind Speed 8 mph (NE)    
Max Wind Speed 15 mph    
Max Gust Speed 22 mph    
Visibility 10 miles    
Events      
Averages and records for this station are not official NWS values.
T = Trace of Precipitation, MM = Missing Value Source: NWS Daily Summary

Daily Weather History Graph

Daily Weather History Graph

Search for Another Location

Airport or City:

Trip Planner

Search our weather history database for the weather conditions in past years. The results will help you decide how hot, cold, wet, or windy it might be!

Date:

Astronomy

Oct. 12, 2017 Rise Set
Actual Time 7:25 AM EDT 7:00 PM EDT
Civil Twilight 7:02 AM EDT 7:24 PM EDT
Nautical Twilight 6:34 AM EDT 7:51 PM EDT
Astronomical Twilight 6:07 AM EDT 8:18 PM EDT
Moon 12:22 AM EDT (10/12) 2:18 PM EDT (10/12)
Length of Visible Light 12h 21m
Length of Day
11h 34m
Waning Gibbous, 49% of the Moon is Illuminated
Oct 12
Waning Gibbous
Oct 19
New
Oct 27
First Quarter
Nov 4
Full
Nov 10
Last Quarter

Hourly Weather History & Observations

Time (EDT) Temp. Heat Index Dew Point Humidity Pressure Visibility Wind Dir Wind Speed Gust Speed Precip Events Conditions
12:53 AM 73.9 °F - 70.0 °F 87% 30.00 in 10.0 mi NE 4.6 mph - N/A   Clear
1:53 AM 73.0 °F - 70.0 °F 90% 29.98 in 10.0 mi NE 4.6 mph - N/A   Clear
2:53 AM 73.0 °F - 70.0 °F 90% 29.97 in 10.0 mi ENE 5.8 mph - N/A   Clear
3:53 AM 72.0 °F - 69.1 °F 91% 29.97 in 10.0 mi North - - N/A   Clear
4:53 AM 71.1 °F - 68.0 °F 90% 29.98 in 10.0 mi NE 4.6 mph - N/A   Clear
5:53 AM 71.1 °F - 68.0 °F 90% 29.97 in 10.0 mi NNE 5.8 mph - N/A   Clear
6:53 AM 71.1 °F - 68.0 °F 90% 29.99 in 10.0 mi North 5.8 mph - N/A   Clear
7:53 AM 72.0 °F - 68.0 °F 87% 29.99 in 10.0 mi North 6.9 mph - N/A   Clear
8:53 AM 75.0 °F - 68.0 °F 79% 29.99 in 10.0 mi NNE 10.4 mph - N/A   Clear
9:53 AM 79.0 °F - 66.9 °F 66% 30.01 in 10.0 mi NE 9.2 mph 20.7 mph N/A   Clear
10:53 AM 82.0 °F 84.1 °F 66.0 °F 58% 30.02 in 10.0 mi NNE 13.8 mph 21.9 mph N/A   Clear
11:53 AM 84.0 °F 85.8 °F 64.9 °F 53% 30.00 in 10.0 mi NE 10.4 mph 19.6 mph N/A   Clear
12:53 PM 86.0 °F 87.3 °F 64.0 °F 48% 30.00 in 10.0 mi NE 13.8 mph - N/A   Partly Cloudy
1:53 PM 84.9 °F 87.1 °F 66.0 °F 53% 29.96 in 10.0 mi ENE 12.7 mph - N/A   Overcast
2:53 PM 86.0 °F 88.2 °F 66.0 °F 51% 29.94 in 10.0 mi East 12.7 mph - N/A   Mostly Cloudy
3:53 PM 84.9 °F 87.6 °F 66.9 °F 55% 29.94 in 10.0 mi NE 12.7 mph - N/A   Overcast
4:53 PM 84.0 °F 87.0 °F 68.0 °F 58% 29.94 in 10.0 mi ENE 12.7 mph - N/A   Mostly Cloudy
5:53 PM 84.0 °F 87.0 °F 68.0 °F 58% 29.94 in 10.0 mi ENE 15.0 mph - N/A   Clear
6:53 PM 81.0 °F 84.1 °F 69.1 °F 67% 29.95 in 10.0 mi NE 13.8 mph - N/A   Clear
7:53 PM 80.1 °F 83.2 °F 70.0 °F 71% 29.97 in 10.0 mi NE 11.5 mph - N/A   Partly Cloudy
8:53 PM 78.1 °F - 70.0 °F 76% 29.99 in 10.0 mi NNE 9.2 mph - N/A   Clear
9:53 PM 77.0 °F - 70.0 °F 79% 29.99 in 10.0 mi NE 10.4 mph - N/A   Clear
10:53 PM 77.0 °F - 70.0 °F 79% 30.00 in 10.0 mi NNE 8.1 mph - N/A   Mostly Cloudy
11:53 PM 75.9 °F - 71.1 °F 85% 30.00 in 10.0 mi NNE 5.8 mph - N/A   Clear